www.pogodaiklimat.ru

Погода и климат >> Архив погоды >> Россия >> Ненецкий АО >> Усть-Кара


ПОГОДА в Усть-Каре

  • Прогноз погоды в Усть-Каре
  • Монитор погоды в Усть-Каре

АРХИВ ПОГОДЫ в Усть-Каре

Время (UTC), дата Ветер
(напр.,м/с)
 
Видим.   Явления Облачность Т
(С)
Тd
(С)
f
(%)
Тe
(С)
Тes
(С)
Комфортность P
(гПа)
Po
(гПа)
Тmin
(С)
Tmax
(С)
R
(мм)
R24
(мм)
S
(см)
21 11.06 ЮЗ 2 10 км 10/10 600 м
[Sc]
-1.2 -1.3 99 -5 -5 1005.4 1005.0
00 12.06 ЮЗ 3 10 км 10/10 300 м
[Sc]
-0.3 -1.2 94 -5 -5 1005.4 1005.0
03 12.06 ЮЗ 4 10 км 10/10 600 м
[Sc]
-0.2 -1.0 94 -6 -6 1001.4 1001.0 -2.8
06 12.06 СЗ 3 10 км 10/8 600 м
[Sc Ac trans]
+1.0 -0.3 91 -4 -3 1001.1 1000.7
09 12.06 СЗ 1 4000 м слаб. ливневой снег 10/10 300 м
[Cb cap]
+0.3 +0.3 100 -2 -2 1001.1 1000.7
12 12.06 З 2 1000 м слаб. ливневой снег 10/10 300 м
[Cb cap]
+0.3 +0.3 100 -4 -4 1000.4 1000.0
15 12.06 СЗ 6 10 км в посл. час ливневой снег 8/4 300 м
[St Ac trans]
-0.3 -0.5 99 -7 -7 1000.0 999.6 +1.2 5
18 12.06 СЗ 7-10
{10}
10 км {ливн. осадки} 9/9 300 м
[St]
-0.9 -1.4 96 -8 -8 1000.0 999.6
21 12.06 СЗ 7-10
{10}
10 км 9/9 300 м
[St]
-1.4 -1.7 98 -9 -9 999.0 998.6
00 13.06 СЗ 6 10 км 10/9 300 м
[St Ac trans]
-1.3 -1.9 96 -8 -8 998.5 998.1
03 13.06 СЗ 8-10
{10}
10 км 9/9 300 м
[St]
-1.1 -1.5 97 -9 -9 998.2 997.8 -1.5
06 13.06 СЗ 9-11
{13}
10 км 9/8 600 м
[Sc Ac trans]
-0.6 -1.6 93 -9 -9 998.7 998.3
09 13.06 СЗ 10-12
{13}
2000 м слаб. ливневой снег 10/10 300 м
[Cb cap]
-0.4 -0.4 100 -9 -9 999.4 999.0
15 13.06 СЗ 12-14
{15}
2000 м слаб. ливневой снег 10/10 300 м
[Cb cap]
-1.1 -1.1 100 -11 -11 999.7 999.3 +0.2 0.6
06 14.06 СЗ 7
{12}
4000 м слаб. ливневой снег 10/10 300 м
[Cb cap]
-0.6 -1.2 96 -8 -8 1001.1 1000.7
09 14.06 СЗ 7
{11}
10 км {ливн. осадки} 9/4 600 м
[Sc Ac trans]
+0.1 -0.6 95 -7 -6 1001.2 1000.8
12 14.06 СЗ 5
{10}
10 км {ливн. осадки} 4/1 300 м
[Cu hum Ac trans Ci fib]
+0.6 -0.1 95 -6 -3 1001.0 1000.6
15 14.06 СЗ 4 10 км {ливн. осадки} 6/3 600 м
[Sc Ac trans]
+0.2 -0.6 94 -5 -5 1000.0 999.6 +1.5 0.0
18 14.06 З 4 10 км 10/10 600 м
[Sc]
+0.5 -0.2 95 -5 -5 998.6 998.2
21 14.06 ЮЗ 3 4000 м слаб. ливневой снег 10/10 300 м
[Cb cap]
0.0 0.0 100 -5 -5 997.3 996.9
00 15.06 ЮЗ 3 10 км {ливн. осадки} 10/10 300 м
[St]
+0.3 +0.3 100 -5 -5 995.7 995.3
03 15.06 З 3 10 км {ливн. осадки} 10/10 300 м
[St]
+0.9 +0.9 100 -4 -4 995.1 994.7 -0.3 0.0
06 15.06 ЮЗ 2 10 км в посл. час ливневой дождь 10/10 300 м
[St]
+2.3 +1.7 96 -1 -1 995.6 995.2
09 15.06 С 1 10 км 10/10 600 м
[Sc]
+1.8 +0.9 94 -0 -0 996.5 996.1
12 15.06 СЗ 1 10 км {ливн. осадки} 9/5 300 м
[St Ac trans]
+1.1 +0.8 98 -1 +1 997.6 997.2
15 15.06 З 1 10 км 10/4 600 м
[Sc Ac trans]
+1.0 0.0 93 -1 -1 998.0 997.6 +3.4 0.6
18 15.06 Ю 1 10 км {ливн. осадки} 10/6 600 м
[Sc Ac trans]
+1.4 +0.8 96 -1 -1 997.8 997.4
21 15.06 Ю 3 10 км {ливн. осадки} 10/8 600 м
[Sc Ac trans]
+0.9 +0.5 97 -4 -4 997.0 996.6
00 16.06 ЮЗ 4 10 км {ливн. осадки} 9/8 600 м
[Sc Ac trans]
+0.9 +0.4 96 -5 -4 996.4 996.0
03 16.06 Ю 5 20 км 10/3 600 м
[Sc Ac trans Ci fib]
+2.5 +0.4 86 -3 -2 995.7 995.3 +0.5 0.0
06 16.06 Ю 6 4000 м слаб. ливневой дождь 10/10 300 м
[Cb cap]
+2.9 +2.1 94 -3 -3 994.7 994.3
09 16.06 ЮЗ 4 4000 м слаб. ливневой дождь 10/10 300 м
[Cb cap]
+3.0 +2.3 95 -2 -2 994.5 994.1
12 16.06 Ю 6 10 км 10/10 600 м
[Sc]
+5.1 +4.1 93 -0 -0 993.9 993.5
15 16.06 Ю 6 4000 м слаб. ливневой дождь 10/8 300 м
[Cb cap Ac trans]
+4.1 +3.5 96 -2 -2 992.7 992.3 +5.4 1
06 17.06 Ю 5 4000 м слаб. ливневой снег 10/10 300 м
[Cb cap]
+2.3 +1.9 97 -3 -3 990.7 990.3
09 17.06 ЮЗ 7 20 км {ливн. осадки} 10/10 600 м
[Sc]
+3.1 +0.6 84 -3 -3 991.5 991.1
12 17.06 ЮЗ 5
{10}
20 км {ливн. осадки} 9/8 600 м
[Sc Ac trans]
+3.0 +0.7 85 -2 -2 992.8 992.4
15 17.06 ЮЗ 5 20 км 9/8 600 м
[Sc Ac trans]
+2.5 +0.4 86 -3 -3 993.9 993.5 +3.7 0.9
18 17.06 ЮЗ 6 10 км 10/10 600 м
[Sc]
+1.8 +0.5 91 -4 -4 994.1 993.7
21 17.06 Ю 5 10 км 10/10 300 м
[St]
+0.8 +0.5 98 -5 -5 993.6 993.2
00 18.06 Ю 4 10 км 10/10 300 м
[St]
+1.2 +0.6 96 -4 -4 993.5 993.1
03 18.06 ЮЗ 4 4000 м слаб. ливневой снег 10/10 300 м
[Cb cap]
+1.2 +0.7 96 -4 -4 993.5 993.1 +0.7 0.0
06 18.06 ЮЗ 3 20 км осадки на расстоянии {ливн. осадки} 10/4 300 м
[Cb cap Ac trans Ci fib]
+3.7 +0.9 82 -0 +2 993.6 993.2
09 18.06 ЮВ 4 20 км {ливн. осадки} 10/6 600 м
[Sc Ac trans Ci fib]
+4.3 +1.4 81 0 +1 994.3 993.9
12 18.06 ЮВ 3 4000 м слаб. ливневой дождь 8/6 300 м
[Cb cap Ci fib]
+4.5 +2.1 84 +1 +3 994.8 994.4
15 18.06 С 1 4000 м слаб. ливневой дождь 10/6 300 м
[Cb cap Ac trans Ci fib]
+2.4 +1.1 91 +1 +1 995.2 994.8 +4.5 1
18 18.06 З 4 4000 м слаб. ливневой дождь 10/8 300 м
[Cb cap Ac trans]
+0.9 +0.8 99 -5 -5 995.4 995.0

 

Местоположение метеостанции Усть-Кара (Ненецкий АО, Россия): широта 69.25 долгота 64.93 высота над уровнем моря 3 м.

В архиве по умолчанию представлена погода в Усть-Каре за последнюю неделю. Архивные данные за месяц целиком и за предыдущие месяцы, начиная с января 2011 года, Вы можете получить, выбрав интересующий диапазон дат из раскрывающегося списка и нажав кнопку "Ввод!".


*Определитесь, кто Вы:
робот инопланетянин человек

Внимание! Время в таблицах - всемирное. Для получения местного времени необходимо прибавить поправку, которая равна 3 ч.

Смотрите также архив погоды в соседних городах и на ближайших метеорологических станциях:

Погода в Марресале (Ямало-Ненецкий АО, Россия) (89 км)
Погода в Амдерме (Ненецкий АО, Россия) (139 км)
Погода на Мысе Белый Нос (Ненецкий АО, Россия) (189 км)
Погода в Воркуте (Коми, Россия) (201 км)
Погода в Елецкой (Коми, Россия) (247 км)
Погода в Имени Федорова (Ненецкий АО, Россия) (261 км)
Погода в Харпе (Ямало-Ненецкий АО, Россия) (275 км)
Погода в Варандее (Ненецкий АО, Россия) (279 км)
Погода в Белоярске (Ямало-Ненецкий АО, Россия) (296 км)
Погода в Сеяхе (Ямало-Ненецкий АО, Россия) (310 км)

Пояснения к столбцам:

Ветер - указаны скорость ветра в м/с - средняя за 10 мин, порывы в срок и между сроками (в фигурных скобках) и направление, откуда дует ветер: С - северный, СВ - северо-восточный, В - восточный, ЮВ - юго-восточный, Ю - южный, ЮЗ - юго-западный, З - западный, СЗ - северо-западный.
Видимость - горизонтальная дальность видимости в метрах или километрах. При видимости от 1 до 10 км при отсутствии осадков обычно наблюдается дымка, при ухудшении видимости до 1 км и менее - туман. В сухую погоду видимость может ухудшаться дымом, пылью или мглою.
Явления - указаны атмосферные явления, наблюдавшиеся в срок или в последний час перед сроком; фигурными скобками обозначены явления, наблюдавшиеся между сроками (за 1-3 часа до срока); квадратными скобками обозначены град или гололедные отложения с указанием их диаметра в мм.
Облачность - указаны через наклонную черту общая и нижняя облачность в баллах и высота нижней границы облаков в метрах; квадратными скобками обозначены формы облаков: Ci - перистые, Cs - перисто-слоистые, Cc - перисто-кучевые, Ac - высококучевые, As - высокослоистые, Sc - слоисто-кучевые, Ns - слоисто-дождевые, Cu - кучевые, Cb - кучево-дождевые. Подробнее классификацию облаков см. в Атласе облаков (PDF).
T - Температура воздуха - температура, измеренная на высоте 2 м над землей.
Td - Температура точки росы - температура, при понижении до которой содержащийся в воздухе водяной пар достигнет насыщения.
f - Относительная влажность воздуха - влажноcть воздуха, измеренная на высоте 2 м над землей.
Te - Эффективная температура - температура, которую ощущает одетый по сезону человек в тени. Характеристика душности погоды. При расчете учитывается влияние влажности воздуха и скорости ветра на теплоощущения человека.
Tes - Эффективная температура на солнце - температура, которую ощущает человек, с поправкой на солнечный нагрев. Характеристика знойности погоды. Зависит от высоты солнца над горизонтом, облачности и скорости ветра. Ночью, в пасмурную погоду, а также при ветре 12 м/с и более поправка равна нулю.
P - Атмосферное давление - приведенное к уровню моря атмосферное давление.
Po - Атмосферное давление - измеренное на уровне метеостанции атмосферное давление.
Tmin - Минимальная температура - минимум температуры воздуха на высоте 2 м над землей.
Tmax - Максимальная температура - максимум температуры воздуха на высоте 2 м над землей.
R - Количество осадков - Количество выпавших осадков за период времени, мм. При наведении курсора мыши на число - период времени, за который выпало указанное количество осадков.
R24 - Количество осадков - Количество выпавших осадков за 24 часа, мм.
S - Снежный покров - Высота снежного покрова, см. При наведении курсора мыши на число - состояние снежного покрова и степень покрытия местности в баллах.